EW1558 Weather Reports


Display with metric or nautical units.
time (UTC)temp
F
wind
direction
speed
MPH
gust
MPH
rain 1hr
in
rain 24hr
in
rain mn
in
humidity
%
barometer
mb
20260902040022 79 234 0.0 0.0 0.00 0.01 0.01 90 1010.9
20260902034521 79 234 0.0 0.0 0.00 0.01 0.01 90 1011.1
20260902033020 80 234 0.0 0.0 0.00 0.01 0.01 90 1011.2
20260902031532 80 234 0.0 0.0 0.00 0.01 0.01 90 1011.4
20260902030020 80 234 0.0 0.0 0.00 0.01 0.01 88 1011.4
20260902024519 81 234 0.0 0.0 0.00 0.01 0.01 88 1011.3
20260902023019 81 234 0.0 0.0 0.00 0.01 0.01 87 1011.3
20260902021530 82 234 0.0 0.0 0.00 0.01 0.01 86 1011.3
20260902020019 82 234 0.0 0.0 0.00 0.01 0.01 85 1011.1
20260902014540 82 234 0.0 0.0 0.00 0.01 0.01 84 1011.0
20260902013016 83 234 0.0 0.0 0.00 0.01 0.01 84 1010.8
20260902011516 83 234 0.0 0.0 0.00 0.01 0.01 82 1010.5
20260902010020 84 234 0.0 0.0 0.00 0.01 0.01 81 1010.4
20260902004518 85 234 0.0 0.0 0.00 0.01 0.01 79 1010.3
20260902003015 85 234 0.0 0.0 0.00 0.01 0.01 79 1010.2
20260902001514 86 234 0.0 2.0 0.00 0.01 0.01 81 1010.1
20260902000018 86 312 0.0 0.0 0.00 0.01 0.01 80 1010.2
20260901234532 87 312 0.0 2.0 0.00 0.01 0.01 78 1010.3
20260901233012 88 332 0.0 2.0 0.00 0.01 0.01 75 1010.5
20260901231510 88 202 0.0 5.0 0.00 0.01 0.01 77 1010.5
20260901230013 87 222 0.0 2.0 0.00 0.01 0.01 80 1010.6
20260901224508 82 211 0.0 2.0 0.00 0.01 0.01 87 1010.6
20260901223011 79 206 0.0 4.0 0.00 0.01 0.01 85 1010.7
20260901221525 79 209 0.0 3.0 0.00 0.01 0.01 86 1010.8
20260901220012 78 209 0.0 2.0 0.00 0.01 0.01 88 1010.7
20260901214505 78 209 2.0 3.0 0.00 0.01 0.01 88 1010.7
20260901213005 78 209 0.0 5.0 0.00 0.01 0.01 89 1010.8
20260901211506 78 232 3.0 6.0 0.00 0.01 0.01 85 1010.8
20260901210007 79 238 1.0 3.0 0.00 0.01 0.01 82 1010.9
20260901204505 79 257 1.0 4.0 0.00 0.21 0.01 83 1011.0
20260901203005 79 228 0.0 4.0 0.00 0.21 0.01 83 1011.1
20260901201511 79 232 0.0 5.0 0.00 0.21 0.01 83 1011.0
20260901200002 78 231 3.0 7.0 0.00 0.21 0.01 86 1011.2
20260901194502 78 221 6.0 11.0 0.00 0.22 0.01 86 1011.2
20260901193002 78 211 6.0 12.0 0.00 0.22 0.01 91 1011.3
20260901191505 78 225 7.0 12.0 0.00 0.22 0.01 87 1011.3
20260901190100 80 214 6.0 9.0 0.00 0.22 0.01 83 1011.3
20260901190002 81 216 6.0 9.0 0.00 0.22 0.01 82 1011.3
20260901184607 84 198 1.0 6.0 0.00 0.22 0.01 78 1011.3
20260901183105 89 209 3.0 7.0 0.00 0.22 0.01 72 1011.3
20260901181554 88 153 0.0 5.0 0.00 0.22 0.01 78 1011.5
20260901180050 86 223 1.0 9.0 0.00 0.22 0.01 80 1011.6
20260901174547 83 178 0.0 0.0 0.00 0.22 0.01 86 1011.9
20260901173046 83 181 0.0 0.0 0.00 0.22 0.01 81 1012.0
20260901171549 84 169 0.0 0.0 0.00 0.22 0.01 86 1012.1
20260901170045 83 107 0.0 0.0 0.00 0.22 0.01 88 1012.1
20260901164544 83 107 0.0 0.0 0.00 0.22 0.01 88 1012.5
20260901163046 83 123 0.0 0.0 0.01 0.22 0.01 88 1012.7
20260901161545 83 256 0.0 0.0 0.01 0.22 0.01 88 1012.5
20260901160050 82 257 0.0 0.0 0.01 0.22 0.01 89 1012.2
20260901154537 82 306 0.0 0.0 0.01 0.22 0.01 90 1012.4
20260901153039 81 306 0.0 0.0 0.00 0.21 0.00 89 1012.3
20260901151536 81 306 0.0 0.0 0.00 0.21 0.00 88 1012.1
20260901150036 82 306 0.0 0.0 0.00 0.21 0.00 88 1012.1
20260901144533 82 306 0.0 0.0 0.00 0.21 0.00 86 1012.0
20260901143033 82 23 0.0 0.0 0.00 0.21 0.00 86 1012.1
20260901141530 82 301 0.0 0.0 0.00 0.21 0.00 87 1012.1
20260901140028 81 186 0.0 0.0 0.00 0.21 0.00 88 1011.9
20260901134543 80 234 0.0 0.0 0.00 0.21 0.00 89 1012.0
20260901133021 79 246 0.0 0.0 0.00 0.21 0.00 91 1012.1
20260901131517 78 275 0.0 0.0 0.00 0.21 0.00 93 1012.2
20260901130013 76 259 0.0 0.0 0.00 0.21 0.00 96 1012.3
20260901124510 75 258 0.0 0.0 0.00 0.28 0.00 97 1012.1
20260901123008 74 226 0.0 0.0 0.00 0.28 0.00 99 1012.0
20260901121507 74 219 0.0 0.0 0.00 0.28 0.00 99 1011.9
20260901120006 73 219 0.0 0.0 0.00 0.28 0.00 100 1011.8
20260901114506 73 219 0.0 0.0 0.00 0.45 0.00 99 1011.8
20260901113012 73 209 0.0 0.0 0.00 0.45 0.00 99 1011.8
20260901111504 73 209 0.0 0.0 0.00 0.45 0.00 99 1011.6
20260901110002 72 209 0.0 0.0 0.00 0.45 0.00 99 1011.3
20260901104501 72 209 0.0 0.0 0.00 0.45 0.00 99 1011.1
20260901103105 72 209 0.0 0.0 0.00 0.45 0.00 99 1011.2
20260901101615 72 209 0.0 0.0 0.00 0.45 0.00 99 1011.1
20260901101501 72 209 0.0 0.0 0.00 0.45 0.00 99 1011.1
20260901100114 72 209 0.0 0.0 0.00 0.45 0.00 99 1011.2
20260901094559 72 209 0.0 0.0 0.00 0.45 0.00 99 1011.3
20260901093058 72 209 0.0 0.0 0.00 0.45 0.00 99 1011.2
20260901091558 72 209 0.0 0.0 0.00 0.45 0.00 99 1011.1
20260901084559 72 209 0.0 0.0 0.00 0.45 0.00 98 1011.1
20260901083052 72 209 0.0 0.0 0.00 0.45 0.00 98 1010.8
20260901081557 73 209 0.0 0.0 0.00 0.45 0.00 98 1010.8
20260901080053 73 209 0.0 0.0 0.00 0.45 0.00 98 1010.8
20260901074551 73 209 0.0 0.0 0.00 0.45 0.00 98 1010.8
20260901073100 73 209 0.0 0.0 0.00 0.45 0.00 98 1010.9
20260901071553 73 209 0.0 0.0 0.00 0.45 0.00 98 1010.9
20260901070059 72 209 0.0 0.0 0.00 0.45 0.00 95 1010.8
20260901064547 74 209 0.0 0.0 0.00 0.45 0.00 96 1010.8
20260901063047 75 209 0.0 0.0 0.00 0.45 0.00 96 1010.8
20260901061542 75 209 0.0 0.0 0.00 0.45 0.00 96 1010.7
20260901060045 75 209 0.0 0.0 0.00 0.45 0.00 96 1010.7
20260901054540 75 209 0.0 0.0 0.00 0.45 0.00 95 1010.7
20260901053102 75 209 0.0 0.0 0.00 0.45 0.00 95 1010.7
20260901051538 75 209 0.0 0.0 0.00 0.45 0.00 95 1010.7
20260901050037 75 209 0.0 0.0 0.00 0.45 0.00 95 1010.6
20260901044552 75 209 0.0 0.0 0.00 0.45 0.45 95 1010.8
20260901043040 75 209 0.0 0.0 0.00 0.45 0.45 95 1010.8
20260901041535 75 209 0.0 0.0 0.00 0.45 0.45 95 1010.7